Regional Weather Roundup
Issued by NWS

Home | Current Version | Previous Version | Text Only | Print | Product List | Glossary Off
Versions: 1 2 3 4 5 6 7 8 9 10 11 12 13 14 15 16 17 18 19 20 21 22 23 24 25 26 27 28 29 30 31 32 33 34 35 36 37 38 39 40 41 42 43 44 45 46 47 48 49 50

000
ASUS43 KOAX 260602
RWRNE

WEATHER ROUNDUP FOR NEBRASKA
NATIONAL WEATHER SERVICE OMAHA NE
1200 AM CST MON JAN 26 2015

NOTES: SATELLITE DATA IS BEING USED TO AUGMENT CLOUD COVER ABOVE
       12000 FEET.
       "FAIR" INDICATES FEW OR NO CLOUDS BELOW 12,000 FEET WITH NO
       SIGNIFICANT WEATHER AND/OR OBSTRUCTIONS TO VISIBILITY.

  * THESE STATIONS DO NOT REPORT WEATHER SUCH AS RAIN...SNOW OR FOG.

NEZ001>004-019>022-054>056-260700-
NEBRASKA PANHANDLE

CITY           SKY/WX    TMP DP  RH WIND       PRES   REMARKS
SCOTTSBLUFF    MOCLDY    33  29  85 NW3       30.13R
6HR MIN TEMP:  32; 6HR MAX TEMP:  47;

ALLIANCE       PTCLDY    36  30  79 W15       30.06S WCI  27
6HR MIN TEMP:  35; 6HR MAX TEMP:  43;

CHADRON        PTCLDY    43  31  62 W12       30.04S
6HR MIN TEMP:  34; 6HR MAX TEMP:  46;

SIDNEY         CLEAR     42  30  62 W14       30.13S
6HR MIN TEMP:  40; 6HR MAX TEMP:  46;

$$

NEZ057>060-069>072-079>082-260700-
SOUTHWEST NEBRASKA

CITY           SKY/WX    TMP DP  RH WIND       PRES   REMARKS
NORTH PLATTE   CLEAR     29  23  78 CALM      30.02S
6HR MIN TEMP:  29; 6HR MAX TEMP:  42;

IMPERIAL       CLEAR     42  30  62 W13       30.07S
6HR MIN TEMP:  38; 6HR MAX TEMP:  47;

MCCOOK         PTCLDY    35  26  69 SW8       30.05S WCI  29
6HR MIN TEMP:  35; 6HR MAX TEMP:  48;

$$

NEZ005>010-023>029-035>040-094-260700-
NORTH CENTRAL NEBRASKA

CITY           SKY/WX    TMP DP  RH WIND       PRES   REMARKS
VALENTINE      CLEAR     34  30  85 W8        29.95S WCI  27
6HR MIN TEMP:  30; 6HR MAX TEMP:  37;

BROKEN BOW     PTCLDY    32  27  81 CALM      29.99F
6HR MIN TEMP:  25; 6HR MAX TEMP:  36;

ORD            CLOUDY    33  28  81 CALM      29.99F
6HR MIN TEMP:  25; 6HR MAX TEMP:  33;

$$

NEZ041-046>049-061>064-073>077-083>087-260700-
SOUTH CENTRAL NEBRASKA

CITY           SKY/WX    TMP DP  RH WIND       PRES   REMARKS
GRAND ISLAND   CLOUDY    32  27  81 S6        30.05S WCI  26
6HR MIN TEMP:  25; 6HR MAX TEMP:  37;

HASTINGS       CLOUDY    32  25  75 S5        30.03F WCI  27
6HR MIN TEMP:  25; 6HR MAX TEMP:  35;

KEARNEY *      CLOUDY    36  27  69 SW12      30.03F WCI  27
$$

NEZ011>018-030>034-042>045-260700-
NORTHEAST NEBRASKA

CITY           SKY/WX    TMP DP  RH WIND       PRES   REMARKS
NORFOLK        CLOUDY    33  31  92 S8        30.00F WCI  26
6HR MIN TEMP:  28; 6HR MAX TEMP:  37;

COLUMBUS *     CLOUDY    34  27  75 CALM      30.06S
TEKAMAH        CLOUDY    30  28  92 S5        30.05R WCI  25
6HR MIN TEMP:  29; 6HR MAX TEMP:  37;

$$

NEZ050>053-065>068-078-088>093-260700-
SOUTHEAST NEBRASKA

CITY           SKY/WX    TMP DP  RH WIND       PRES   REMARKS
LINCOLN        MOCLDY    32  28  85 CALM      30.07F
6HR MIN TEMP:  30; 6HR MAX TEMP:  38;

OMAHA EPPLEY   CLEAR     29  27  92 S7        30.06S WCI  22
6HR MIN TEMP:  29; 6HR MAX TEMP:  38;

FALLS CITY     PTCLDY    31  27  85 S7        30.08F WCI  24
6HR MIN TEMP:  30; 6HR MAX TEMP:  38;

$$

NEZ044-045-051>053-067-260700-
OMAHA AREA

CITY           SKY/WX    TMP DP  RH WIND       PRES   REMARKS
OMAHA EPPLEY   CLEAR     29  27  92 S7        30.06S WCI  22
6HR MIN TEMP:  29; 6HR MAX TEMP:  38;

OFFUTT AFB     CLEAR     26  25  93 CALM      30.06S
$$


USA.gov is the U.S. government's official web portal to all federal, state and local government web resources and services.